When you browse on this site, cookies collect data to enhance your experience and personalize the content and advertising you see.
Visit our Privacy Policy to learn more. By continuing to use the site, you agree to this use of cookies and data.
  • en France
  • Liste des pays
  • À 7 jours
  • Température de l'eau
  • Carte satellitaire
  • Carte météo
  • Widgets météo
  • user-avatar
    Se connecter

    Météo par heure à Boragangechuv

    Ce jour, 24 Janvier, Jeudi

    Heure Température Précipitation Vent Pression Humidité
    00:00 +3°C° 0 mm 4 m/s 759 mmHg 86%
    01:00 +3°C° 0 mm 3 m/s 759 mmHg 84%
    02:00 +3°C° 0 mm 3 m/s 759 mmHg 83%
    03:00 +3°C° 0 mm 4 m/s 758 mmHg 76%
    04:00 +3°C° 0 mm 4 m/s 758 mmHg 77%
    05:00 +3°C° 0 mm 3 m/s 758 mmHg 77%
    06:00 +3°C° 0 mm 2 m/s 758 mmHg 78%
    07:00 +4°C° 0 mm 2 m/s 758 mmHg 74%
    08:00 +4°C° 0 mm 3 m/s 758 mmHg 70%
    09:00 +5°C° 0 mm 3 m/s 758 mmHg 66%
    10:00 +7°C° 0 mm 3 m/s 757 mmHg 62%
    11:00 +8°C° 0 mm 4 m/s 757 mmHg 57%
    12:00 +10°C° 0 mm 5 m/s 756 mmHg 53%
    13:00 +10°C° 0 mm 5 m/s 755 mmHg 54%
    14:00 +10°C° 0 mm 5 m/s 755 mmHg 54%
    15:00 +10°C° 0 mm 5 m/s 754 mmHg 55%
    16:00 +10°C° 0 mm 4 m/s 754 mmHg 62%
    17:00 +7°C° 0 mm 4 m/s 754 mmHg 69%
    18:00 +7°C° 0 mm 3 m/s 754 mmHg 76%
    19:00 +7°C° 0 mm 3 m/s 754 mmHg 74%
    20:00 +6°C° 0 mm 2 m/s 753 mmHg 72%
    21:00 +6°C° 0 mm 2 m/s 753 mmHg 71%
    22:00 +6°C° 0 mm 2 m/s 752 mmHg 70%
    23:00 +6°C° 0 mm 1 m/s 752 mmHg 69%

    Demain, 25 Janvier, Vendredi

    Heure Température Précipitation Vent Pression Humidité
    00:00 +6°C° 0 mm 1 m/s 752 mmHg 68%
    01:00 +5°C° 0 mm 2 m/s 752 mmHg 71%
    02:00 +4°C° 0 mm 2 m/s 752 mmHg 75%
    03:00 +4°C° 0 mm 2 m/s 752 mmHg 78%
    04:00 +3°C° 0 mm 3 m/s 752 mmHg 78%
    05:00 +3°C° 0 mm 3 m/s 752 mmHg 78%
    06:00 +3°C° 0 mm 3 m/s 752 mmHg 78%
    07:00 +4°C° 0 mm 3 m/s 752 mmHg 76%
    08:00 +4°C° 0 mm 3 m/s 753 mmHg 73%
    09:00 +5°C° 0 mm 3 m/s 753 mmHg 71%
    10:00 +7°C° 0 mm 3 m/s 753 mmHg 67%
    11:00 +8°C° 0 mm 3 m/s 753 mmHg 63%
    12:00 +9°C° 0 mm 3 m/s 753 mmHg 58%
    13:00 +9°C° 0 mm 3 m/s 753 mmHg 58%
    14:00 +9°C° 0 mm 3 m/s 754 mmHg 57%
    15:00 +9°C° 0 mm 3 m/s 754 mmHg 56%
    16:00 +8°C° 0 mm 3 m/s 755 mmHg 63%
    17:00 +7°C° 0 mm 2 m/s 755 mmHg 71%
    18:00 +5°C° 0 mm 2 m/s 756 mmHg 78%
    19:00 +5°C° 0 mm 2 m/s 756 mmHg 80%
    20:00 +6°C° 0 mm 1 m/s 757 mmHg 82%
    21:00 +5°C° 0 mm 1 m/s 757 mmHg 83%
    22:00 +5°C° 0 mm 1 m/s 757 mmHg 83%
    23:00 +5°C° 0 mm 1 m/s 757 mmHg 83%

    Après-demain, 26 Janvier, Samedi

    Heure Température Précipitation Vent Pression Humidité
    00:00 +5°C° 0 mm 1 m/s 758 mmHg 83%
    01:00 +4°C° 0 mm 1 m/s 758 mmHg 84%
    02:00 +4°C° 0 mm 1 m/s 758 mmHg 84%
    03:00 +4°C° 0 mm 1 m/s 758 mmHg 85%
    04:00 +4°C° 0 mm 1 m/s 758 mmHg 85%
    05:00 +2°C° 0 mm 2 m/s 758 mmHg 85%
    06:00 +2°C° 0 mm 2 m/s 758 mmHg 85%
    07:00 +3°C° 0 mm 2 m/s 758 mmHg 82%
    08:00 +2°C° 0 mm 3 m/s 758 mmHg 79%
    09:00 +3°C° 0 mm 3 m/s 758 mmHg 75%
    10:00 +4°C° 0 mm 3 m/s 757 mmHg 71%
    11:00 +5°C° 0 mm 4 m/s 756 mmHg 67%
    12:00 +7°C° 0 mm 4 m/s 756 mmHg 62%
    13:00 +7°C° 0 mm 5 m/s 755 mmHg 62%
    14:00 +7°C° 0 mm 5 m/s 755 mmHg 62%
    15:00 +7°C° 0 mm 5 m/s 754 mmHg 62%
    16:00 +6°C° 0 mm 4 m/s 754 mmHg 69%
    17:00 +5°C° 0 mm 3 m/s 754 mmHg 76%
    18:00 +4°C° 0 mm 3 m/s 754 mmHg 83%
    19:00 +5°C° 0 mm 2 m/s 754 mmHg 84%
    20:00 +5°C° 0 mm 2 m/s 754 mmHg 85%
    21:00 +4°C° 0 mm 2 m/s 754 mmHg 86%
    22:00 +5°C° 0 mm 1 m/s 754 mmHg 86%
    23:00 +5°C° 0 mm 1 m/s 753 mmHg 85%

    27 Janvier, Dimanche

    Heure Température Précipitation Vent Pression Humidité
    00:00 +5°C° 0 mm 1 m/s 753 mmHg 85%
    01:00 +5°C° 0 mm 1 m/s 753 mmHg 85%
    02:00 +5°C° 0 mm 1 m/s 753 mmHg 85%
    03:00 +4°C° 0 mm 1 m/s 753 mmHg 84%
    04:00 +4°C° 0 mm 1 m/s 752 mmHg 84%
    05:00 +4°C° 0 mm 1 m/s 752 mmHg 83%
    06:00 +4°C° 0 mm 1 m/s 752 mmHg 83%
    07:00 +5°C° 0 mm 1 m/s 752 mmHg 79%
    08:00 +5°C° 0 mm 2 m/s 752 mmHg 76%
    09:00 +6°C° 0 mm 2 m/s 751 mmHg 73%
    10:00 +7°C° 0 mm 2 m/s 751 mmHg 66%
    11:00 +9°C° 0 mm 3 m/s 750 mmHg 59%
    12:00 +11°C° 0 mm 4 m/s 750 mmHg 52%
    13:00 +12°C° 0 mm 4 m/s 749 mmHg 52%
    14:00 +12°C° 0 mm 4 m/s 749 mmHg 52%
    15:00 +12°C° 0 mm 5 m/s 748 mmHg 52%
    16:00 +11°C° 0 mm 4 m/s 748 mmHg 61%
    17:00 +9°C° 0 mm 3 m/s 748 mmHg 69%
    18:00 +8°C° 0 mm 3 m/s 749 mmHg 78%
    19:00 +7°C° 0 mm 2 m/s 749 mmHg 79%
    20:00 +8°C° 0 mm 1 m/s 749 mmHg 81%
    21:00 +8°C° 0 mm 1 m/s 749 mmHg 83%
    22:00 +7°C° 0 mm 1 m/s 749 mmHg 84%
    23:00 +7°C° 0 mm 1 m/s 749 mmHg 85%

    28 Janvier, Lundi

    Heure Température Précipitation Vent Pression Humidité
    00:00 +7°C° 0 mm 1 m/s 749 mmHg 87%
    01:00 +7°C° 0 mm 1 m/s 750 mmHg 87%
    02:00 +6°C° 0 mm 2 m/s 750 mmHg 87%
    03:00 +6°C° 0 mm 2 m/s 751 mmHg 87%
    04:00 +5°C° 0 mm 2 m/s 751 mmHg 88%
    05:00 +4°C° 0 mm 3 m/s 752 mmHg 89%
    06:00 +4°C° 0 mm 3 m/s 753 mmHg 90%
    07:00 +5°C° 0 mm 3 m/s 753 mmHg 85%
    08:00 +5°C° 0 mm 3 m/s 754 mmHg 79%
    09:00 +7°C° 0 mm 3 m/s 754 mmHg 73%
    10:00 +8°C° 0 mm 3 m/s 754 mmHg 70%
    11:00 +9°C° 0 mm 2 m/s 754 mmHg 67%
    12:00 +10°C° 0 mm 2 m/s 754 mmHg 63%
    13:00 +10°C° 0 mm 2 m/s 754 mmHg 62%
    14:00 +10°C° 0 mm 2 m/s 754 mmHg 62%
    15:00 +10°C° 0 mm 2 m/s 754 mmHg 61%
    16:00 +9°C° 0 mm 2 m/s 754 mmHg 62%
    17:00 +9°C° 0 mm 2 m/s 755 mmHg 63%
    18:00 +9°C° 0 mm 1 m/s 756 mmHg 65%
    19:00 +9°C° 0 mm 1 m/s 756 mmHg 67%
    20:00 +8°C° 0 mm 1 m/s 756 mmHg 69%
    21:00 +7°C° 0 mm 1 m/s 756 mmHg 72%
    22:00 +7°C° 0 mm 1 m/s 756 mmHg 74%
    23:00 +7°C° 0 mm 1 m/s 756 mmHg 76%

    29 Janvier, Mardi

    Heure Température Précipitation Vent Pression Humidité
    00:00 +6°C° 0 mm 1 m/s 756 mmHg 78%
    01:00 +6°C° 0 mm 1 m/s 756 mmHg 81%
    02:00 +5°C° 0 mm 1 m/s 756 mmHg 83%
    03:00 +5°C° 0 mm 1 m/s 756 mmHg 86%
    04:00 +4°C° 0 mm 1 m/s 756 mmHg 87%
    05:00 +4°C° 0 mm 1 m/s 756 mmHg 88%
    06:00 +4°C° 0 mm 1 m/s 756 mmHg 89%
    07:00 +4°C° 0 mm 1 m/s 757 mmHg 85%
    08:00 +4°C° 0 mm 2 m/s 757 mmHg 82%
    09:00 +4°C° 0 mm 2 m/s 758 mmHg 79%
    10:00 +6°C° 0 mm 2 m/s 758 mmHg 74%
    11:00 +7°C° 0 mm 2 m/s 757 mmHg 68%
    12:00 +8°C° 0 mm 2 m/s 757 mmHg 63%
    13:00 +9°C° 0 mm 2 m/s 757 mmHg 62%
    14:00 +9°C° 0 mm 2 m/s 757 mmHg 60%
    15:00 +9°C° 0 mm 2 m/s 758 mmHg 59%
    16:00 +8°C° 0 mm 2 m/s 758 mmHg 63%
    17:00 +7°C° 0 mm 2 m/s 759 mmHg 68%
    18:00 +5°C° 0 mm 3 m/s 759 mmHg 72%
    19:00 +6°C° 0 mm 2 m/s 759 mmHg 74%
    20:00 +5°C° 0 mm 2 m/s 760 mmHg 76%
    21:00 +5°C° 0 mm 2 m/s 760 mmHg 77%
    22:00 +5°C° 0 mm 2 m/s 760 mmHg 77%
    23:00 +5°C° 0 mm 2 m/s 760 mmHg 78%
    Voir plus